�N����,����,�g�[���i���ԁj���x,�g�[�����x,��g�[���i���ցj���x,����
 2003/09/01, 0:00,27,38,30.3,19.6
 2003/09/01, 0:15,26.9,37,30.2,19.7
 2003/09/01, 0:30,26.9,37,30.2,19.7
 2003/09/01, 0:45,27.1,44,30.2,19.8
 2003/09/01, 1:00,27.6,49,30.2,19.8
 2003/09/01, 1:15,27.7,46,30.2,19.9
 2003/09/01, 1:30,27.6,44,30.2,19.9
 2003/09/01, 1:45,27.5,42,30.2,20
 2003/09/01, 2:00,27.4,42,30.2,20.1
 2003/09/01, 2:15,27.4,40,30.2,20.1
 2003/09/01, 2:30,27.4,41,30.1,20.2
 2003/09/01, 2:45,27.3,39,30.1,20.4
 2003/09/01, 3:00,27.2,40,30.1,20.4
 2003/09/01, 3:15,27.2,40,30.1,20.4
 2003/09/01, 3:30,27.1,39,30.1,20.5
 2003/09/01, 3:45,27.4,44,30.1,20.6
 2003/09/01, 4:00,27.3,43,30.1,20.6
 2003/09/01, 4:15,27.1,41,30.1,20.7
 2003/09/01, 4:30,27.4,46,30.1,20.7
 2003/09/01, 4:45,27.4,44,30.1,20.8
 2003/09/01, 5:00,27.4,43,30.1,20.8
 2003/09/01, 5:15,27.5,47,30.1,20.9
 2003/09/01, 5:30,27.4,44,30.1,20.9
 2003/09/01, 5:45,27.4,43,30.1,21
 2003/09/01, 6:00,27.4,46,30.1,21
 2003/09/01, 6:15,27.5,44,30.1,21.1
 2003/09/01, 6:30,28,44,30.1,21.1
 2003/09/01, 6:45,28.5,45,30.1,21.2
 2003/09/01, 7:00,29,49,30.2,20.1
 2003/09/01, 7:15,29.5,50,30.3,20.2
 2003/09/01, 7:30,29.7,51,30.3,19.4
 2003/09/01, 7:45,30.4,51,30.2,19.6
 2003/09/01, 8:00,30.3,54,30.2,19.6
 2003/09/01, 8:15,30.3,55,30.2,19.7
 2003/09/01, 8:30,30.3,56,30.2,19.7
 2003/09/01, 8:45,30.3,55,30.2,19.8
 2003/09/01, 9:00,30.4,55,30.2,19.8
 2003/09/01, 9:15,30.5,54,30.3,19.9
 2003/09/01, 9:30,30.5,54,30.3,19.9
 2003/09/01, 9:45,30.5,55,30.3,20
 2003/09/01,10:00,30.5,55,30.3,20
 2003/09/01,10:15,30.5,55,30.3,20.1
 2003/09/01,10:30,30.6,56,30.4,20.2
 2003/09/01,10:45,30.6,55,30.4,20.2
 2003/09/01,11:00,30.6,55,30.4,20.3
 2003/09/01,11:15,30.6,57,30.5,20.4
 2003/09/01,11:30,30.6,57,30.5,20.4
 2003/09/01,11:45,30.6,57,30.5,20.5
 2003/09/01,12:00,30.6,58,30.5,20.6
 2003/09/01,12:15,30.7,57,30.5,20.6
 2003/09/01,12:30,30.7,57,30.5,20.7
 2003/09/01,12:45,30.7,55,30.5,20.8
 2003/09/01,13:00,30.7,55,30.5,20.8
 2003/09/01,13:15,30.7,55,30.5,20.9
 2003/09/01,13:30,30.7,54,30.6,20.9
 2003/09/01,13:45,30.7,54,30.7,21
 2003/09/01,14:00,30.8,54,30.7,21
 2003/09/01,14:15,30.8,53,30.7,21.1
 2003/09/01,14:30,30.8,52,30.7,21.2
 2003/09/01,14:45,30.7,52,30.7,21.2
 2003/09/01,15:00,30.8,52,30.8,21.3
 2003/09/01,15:15,30.8,52,30.8,21.3
 2003/09/01,15:30,30.8,52,30.7,21.4
 2003/09/01,15:45,30.8,52,30.8,21.4
 2003/09/01,16:00,30.8,52,30.8,21.5
 2003/09/01,16:15,30.8,51,30.8,21.5
 2003/09/01,16:30,30.9,50,30.8,21.6
 2003/09/01,16:45,30.9,49,31.1,21.7
 2003/09/01,17:00,30.8,50,31.5,21.7
 2003/09/01,17:15,30.9,49,31.4,21.8
 2003/09/01,17:30,30.9,49,31.1,21.8
 2003/09/01,17:45,30.9,50,31,21.9
 2003/09/01,18:00,30.8,50,30.9,21.9
 2003/09/01,18:15,30.8,51,30.9,22
 2003/09/01,18:30,30.8,51,30.8,22
 2003/09/01,18:45,30.8,52,30.8,22.1
 2003/09/01,19:00,30.8,52,30.7,22.1
 2003/09/01,19:15,30.8,52,30.7,22.2
 2003/09/01,19:30,30.8,52,30.7,22.2
 2003/09/01,19:45,30.8,53,30.7,22.3
 2003/09/01,20:00,30.8,53,30.7,22.3
 2003/09/01,20:15,30.8,53,30.7,22.3
 2003/09/01,20:30,30.8,53,30.7,22.4
 2003/09/01,20:45,30.8,54,30.6,22.4
 2003/09/01,21:00,30.9,54,30.7,22.5
 2003/09/01,21:15,30.9,54,30.6,22.5
 2003/09/01,21:30,30.8,54,30.6,22.6
 2003/09/01,21:45,30.8,54,30.6,22.6
 2003/09/01,22:00,30.9,54,30.5,22.6
 2003/09/01,22:15,30.5,50,30.5,22.7
 2003/09/01,22:30,29.2,41,30.5,22.7
 2003/09/01,22:45,29.2,43,30.6,22.8
 2003/09/01,23:00,29.1,41,30.5,22.8
 2003/09/01,23:15,28.8,39,30.5,20.1
 2003/09/01,23:30,28.6,38,30.4,20.1
 2003/09/01,23:45,28.2,37,30.4,20.2
 2003/09/02, 0:00,27.9,37,30.4,20.3
 2003/09/02, 0:15,27.9,38,30.4,20.3
 2003/09/02, 0:30,28.6,50,30.4,20.4
 2003/09/02, 0:45,28.7,46,30.4,20.5
 2003/09/02, 1:00,28.4,43,30.4,20.6
 2003/09/02, 1:15,28.2,41,30.4,20.6
 2003/09/02, 1:30,28.2,40,30.4,20.7
 2003/09/02, 1:45,28.1,39,30.4,20.8
 2003/09/02, 2:00,28.1,38,30.4,20.4
 2003/09/02, 2:15,28,36,30.4,20.4
 2003/09/02, 2:30,28,38,30.4,20.5
 2003/09/02, 2:45,28,39,30.4,20.5
 2003/09/02, 3:00,27.6,39,30.4,20.6
 2003/09/02, 3:15,27.6,40,30.4,20.6
 2003/09/02, 3:30,27.4,39,30.4,20.7
 2003/09/02, 3:45,27.4,40,30.3,20.8
 2003/09/02, 4:00,27.3,39,30.3,20.8
 2003/09/02, 4:15,27.3,40,30.3,20.9
 2003/09/02, 4:30,27.3,38,30.3,20.9
 2003/09/02, 4:45,27.2,40,30.2,21
 2003/09/02, 5:00,27.2,40,30.3,21.1
 2003/09/02, 5:15,27,40,30.3,21.1
 2003/09/02, 5:30,27.1,40,30.3,21.2
 2003/09/02, 5:45,27,40,30.2,21.2
 2003/09/02, 6:00,27,41,30.2,21.3
 2003/09/02, 6:15,27,39,30.2,21.4
 2003/09/02, 6:30,26.9,40,30.3,21.4
 2003/09/02, 6:45,27.7,41,30.2,21.5
 2003/09/02, 7:00,28.7,44,30.2,21.2
 2003/09/02, 7:15,29.4,48,30.3,21.3
 2003/09/02, 7:30,29.9,47,30.4,19.8
 2003/09/02, 7:45,30.8,49,30.4,19.8
 2003/09/02, 8:00,30.7,53,30.5,19.8
 2003/09/02, 8:15,30.7,54,30.6,19.8
 2003/09/02, 8:30,30.7,53,30.7,19.9
 2003/09/02, 8:45,30.7,52,30.5,19.9
 2003/09/02, 9:00,30.7,52,30.4,20
 2003/09/02, 9:15,30.8,51,30.5,20.1
 2003/09/02, 9:30,30.9,52,30.5,20.1
 2003/09/02, 9:45,30.8,52,30.6,20.2
 2003/09/02,10:00,30.9,52,30.5,20.3
 2003/09/02,10:15,30.9,52,30.5,20.3
 2003/09/02,10:30,30.9,52,30.5,20.4
 2003/09/02,10:45,30.9,51,30.6,20.5
 2003/09/02,11:00,30.9,51,30.6,20.6
 2003/09/02,11:15,30.9,51,30.6,20.6
 2003/09/02,11:30,31,51,30.7,20.7
 2003/09/02,11:45,31,51,30.7,20.8
 2003/09/02,12:00,31,51,30.7,20.8
 2003/09/02,12:15,31,51,30.7,20.9
 2003/09/02,12:30,31.1,51,30.8,21
 2003/09/02,12:45,31,51,30.8,21
 2003/09/02,13:00,31,51,30.8,21.1
 2003/09/02,13:15,31.1,50,30.9,21.1
 2003/09/02,13:30,31.1,50,30.9,21.2
 2003/09/02,13:45,31.1,50,30.9,21.3
 2003/09/02,14:00,31.1,50,31,21.3
 2003/09/02,14:15,31.1,50,31.1,21.4
 2003/09/02,14:30,31.1,50,31.1,21.5
 2003/09/02,14:45,31.1,50,31.2,21.5
 2003/09/02,15:00,31.2,50,31.2,21.6
 2003/09/02,15:15,31.2,50,31.3,21.6
 2003/09/02,15:30,31.2,50,31.3,21.7
 2003/09/02,15:45,31.2,50,31.4,21.7
 2003/09/02,16:00,31.2,50,31.4,21.8
 2003/09/02,16:15,31.3,50,31.5,21.9
 2003/09/02,16:30,31.3,50,31.5,21.9
 2003/09/02,16:45,31.3,50,31.6,22
 2003/09/02,17:00,31.3,50,31.8,22
 2003/09/02,17:15,31.3,50,31.9,22.1
 2003/09/02,17:30,31.3,50,31.9,22.1
 2003/09/02,17:45,31.3,50,31.8,22.2
 2003/09/02,18:00,31.3,50,31.7,22.2
 2003/09/02,18:15,31.3,50,31.5,22.3
 2003/09/02,18:30,31.3,50,31.5,22.3
 2003/09/02,18:45,31.3,50,31.3,22.4
 2003/09/02,19:00,31.3,50,31.3,22.4
 2003/09/02,19:15,31.3,51,31.2,22.5
 2003/09/02,19:30,31.2,51,31.2,22.5
 2003/09/02,19:45,31.2,51,31.2,22.6
 2003/09/02,20:00,31.2,52,31.1,20.2
 2003/09/02,20:15,31.2,52,31.1,20.2
 2003/09/02,20:30,31.2,52,31.1,20.2
 2003/09/02,20:45,31.3,53,31.1,20.3
 2003/09/02,21:00,31.2,54,31.1,20.4
 2003/09/02,21:15,31.2,55,31.1,20.4
 2003/09/02,21:30,31.3,54,31,20.5
 2003/09/02,21:45,31.3,55,31,20.6
 2003/09/02,22:00,31.2,55,31,20.6
 2003/09/02,22:15,31.2,56,31,20.7
 2003/09/02,22:30,31.3,55,31,20.8
 2003/09/02,22:45,31.3,55,30.9,20.8
 2003/09/02,23:00,31,54,31,20.9
 2003/09/02,23:15,30.4,49,31,21
 2003/09/02,23:30,29.5,41,31,21
 2003/09/02,23:45,28.9,37,30.8,21.1
 2003/09/03, 0:00,28.6,37,30.8,21.1
 2003/09/03, 0:15,28.6,37,30.7,21.2
 2003/09/03, 0:30,28.3,36,30.8,20
 2003/09/03, 0:45,28.2,36,30.7,20
 2003/09/03, 1:00,28.1,35,30.7,20.1
 2003/09/03, 1:15,28,35,30.7,20.1
 2003/09/03, 1:30,27.7,35,30.7,20.2
 2003/09/03, 1:45,27.7,35,30.7,20.3
 2003/09/03, 2:00,27.6,35,30.7,20.3
 2003/09/03, 2:15,27.8,37,30.7,20.4
 2003/09/03, 2:30,27.8,39,30.7,20.5
 2003/09/03, 2:45,27.7,37,30.7,20.5
 2003/09/03, 3:00,27.7,38,30.7,20.6
 2003/09/03, 3:15,27.8,38,30.7,20.7
 2003/09/03, 3:30,27.8,39,30.7,20.8
 2003/09/03, 3:45,27.8,39,30.7,20.8
 2003/09/03, 4:00,27.7,39,30.6,20.9
 2003/09/03, 4:15,27.7,39,30.6,20.9
 2003/09/03, 4:30,27.6,38,30.6,21
 2003/09/03, 4:45,27.6,39,30.6,21.1
 2003/09/03, 5:00,27.4,38,30.6,21.1
 2003/09/03, 5:15,27.5,39,30.6,21.2
 2003/09/03, 5:30,27.5,39,30.6,21.3
 2003/09/03, 5:45,27.4,39,30.6,21.3
 2003/09/03, 6:00,27.4,39,30.6,21.4
 2003/09/03, 6:15,27.4,39,30.5,21.4
 2003/09/03, 6:30,27.5,39,30.5,21.6
 2003/09/03, 6:45,28.5,39,30.5,21.6
 2003/09/03, 7:00,29.2,43,30.7,21.6
 2003/09/03, 7:15,30,45,30.7,21.7
 2003/09/03, 7:30,30.4,46,30.7,19.9
 2003/09/03, 7:45,31,46,30.7,19.7
 2003/09/03, 8:00,30.9,50,30.7,19.7
 2003/09/03, 8:15,31,51,30.8,19.8
 2003/09/03, 8:30,31.1,52,30.8,19.8
 2003/09/03, 8:45,31.2,52,30.9,19.9
 2003/09/03, 9:00,31.2,52,31,19.9
 2003/09/03, 9:15,31.2,52,30.9,20
 2003/09/03, 9:30,31.2,52,31,20.1
 2003/09/03, 9:45,31.2,52,31,20.1
 2003/09/03,10:00,31.3,52,31,20.2
 2003/09/03,10:15,31.3,53,31,20.3
 2003/09/03,10:30,31.3,53,31,20.3
 2003/09/03,10:45,31.3,53,31,20.4
 2003/09/03,11:00,31.4,53,31.1,20.5
 2003/09/03,11:15,31.3,54,31.1,20.5
 2003/09/03,11:30,31.3,54,31.1,20.6
 2003/09/03,11:45,31.4,54,31.2,20.7
 2003/09/03,12:00,31.4,54,31.1,20.7
 2003/09/03,12:15,31.4,54,31.2,20.8
 2003/09/03,12:30,31.4,54,31.2,20.9
 2003/09/03,12:45,31.4,54,31.2,20.9
 2003/09/03,13:00,31.4,55,31.3,21
 2003/09/03,13:15,31.5,54,31.3,21.1
 2003/09/03,13:30,31.5,54,31.3,21.1
 2003/09/03,13:45,31.5,54,31.3,21.2
 2003/09/03,14:00,31.5,54,31.3,21.2
 2003/09/03,14:15,31.5,54,31.3,21.3
 2003/09/03,14:30,31.5,54,31.3,21.4
 2003/09/03,14:45,31.5,54,31.3,21.4
 2003/09/03,15:00,31.5,54,31.3,21.5
 2003/09/03,15:15,31.5,54,31.3,21.5
 2003/09/03,15:30,31.5,53,31.3,21.6
 2003/09/03,15:45,31.5,53,31.4,21.6
 2003/09/03,16:00,31.5,52,31.5,21.7
 2003/09/03,16:15,31.5,52,31.5,21.8
 2003/09/03,16:30,31.5,52,31.5,21.8
 2003/09/03,16:45,31.5,52,31.5,21.9
 2003/09/03,17:00,31.5,52,31.4,21.9
 2003/09/03,17:15,31.5,52,31.4,22
 2003/09/03,17:30,31.5,52,31.3,22
 2003/09/03,17:45,31.5,52,31.3,22.1
 2003/09/03,18:00,31.5,52,31.3,22.1
 2003/09/03,18:15,31.5,51,31.3,22.2
 2003/09/03,18:30,31.4,52,31.3,22.2
 2003/09/03,18:45,31.5,51,31.2,22.3
 2003/09/03,19:00,31.4,52,31.1,22.3
 2003/09/03,19:15,31.4,52,31.1,22.4
 2003/09/03,19:30,31.4,52,31.1,22.4
 2003/09/03,19:45,30.3,43,31.1,22.5
 2003/09/03,20:00,29.5,40,31.1,22.5
 2003/09/03,20:15,29,35,31,22.6
 2003/09/03,20:30,28.6,33,31,21.6
 2003/09/03,20:45,28.6,35,31,21.6
 2003/09/03,21:00,28.5,36,30.9,21.7
 2003/09/03,21:15,28.1,33,30.8,21.7
 2003/09/03,21:30,28.1,36,30.8,20.5
 2003/09/03,21:45,27.8,34,30.7,20.4
 2003/09/03,22:00,27.6,35,30.8,20.5
 2003/09/03,22:15,27.7,36,30.7,19.9
 2003/09/03,22:30,27.7,35,30.8,20
 2003/09/03,22:45,27.6,36,30.8,20
 2003/09/03,23:00,27.6,37,30.7,20.1
 2003/09/03,23:15,27.5,36,30.8,20.2
 2003/09/03,23:30,27.5,36,30.8,20.2
 2003/09/03,23:45,27.4,36,30.8,20.3
 2003/09/04, 0:00,27.4,36,30.8,20.3
 2003/09/04, 0:15,27.2,35,30.7,20.4
 2003/09/04, 0:30,27.2,36,30.7,20.5
 2003/09/04, 0:45,27.1,34,30.7,20.5
 2003/09/04, 1:00,27.1,35,30.7,20.6
 2003/09/04, 1:15,27.1,36,30.7,20.7
 2003/09/04, 1:30,27,35,30.7,20.7
 2003/09/04, 1:45,27,37,30.7,20.8
 2003/09/04, 2:00,27.1,38,30.7,20.8
 2003/09/04, 2:15,27.2,39,30.7,20.9
 2003/09/04, 2:30,27.2,38,30.6,21
 2003/09/04, 2:45,27.1,39,30.5,21
 2003/09/04, 3:00,27.2,37,30.6,21
 2003/09/04, 3:15,27.1,39,30.6,21
 2003/09/04, 3:30,27.1,39,30.5,21.1
 2003/09/04, 3:45,27,38,30.5,21.1
 2003/09/04, 4:00,27.1,39,30.5,21.2
 2003/09/04, 4:15,27,38,30.6,21.2
 2003/09/04, 4:30,27,39,30.6,21.3
 2003/09/04, 4:45,27,38,30.5,21.3
 2003/09/04, 5:00,27,39,30.6,21.4
 2003/09/04, 5:15,27,38,30.6,21.4
 2003/09/04, 5:30,26.9,39,30.5,21.5
 2003/09/04, 5:45,26.9,39,30.4,21.5
 2003/09/04, 6:00,26.9,39,30.4,21.6
 2003/09/04, 6:15,27.2,38,30.4,21.6
 2003/09/04, 6:30,27.3,36,30.4,21.7
 2003/09/04, 6:45,27.1,33,30.4,21.7
 2003/09/04, 7:00,27.1,35,30.4,21.5
 2003/09/04, 7:15,28.3,38,30.4,21.5
 2003/09/04, 7:30,28.8,38,30.4,20.1
 2003/09/04, 7:45,29.2,40,30.4,20.4
 2003/09/04, 8:00,29.4,42,30.4,20.3
 2003/09/04, 8:15,29.6,42,30.2,20.4
 2003/09/04, 8:30,29.9,42,30.2,20.4
 2003/09/04, 8:45,30.2,42,30.2,20.5
 2003/09/04, 9:00,30.3,44,30.2,20.5
 2003/09/04, 9:15,30.5,42,30.3,20.6
 2003/09/04, 9:30,30.5,42,30.4,20.6
 2003/09/04, 9:45,30.6,42,30.4,20.7
 2003/09/04,10:00,30.6,42,30.5,20.8
 2003/09/04,10:15,30.7,43,30.5,20.8
 2003/09/04,10:30,30.7,43,30.6,20.9
 2003/09/04,10:45,30.7,43,30.6,20.9
 2003/09/04,11:00,30.8,43,30.6,21
 2003/09/04,11:15,30.9,43,30.7,21
 2003/09/04,11:30,30.9,43,30.6,21.1
 2003/09/04,11:45,30.9,44,30.7,21.2
 2003/09/04,12:00,30.9,44,30.7,21.2
 2003/09/04,12:15,30.9,44,30.7,21.3
 2003/09/04,12:30,30.9,44,30.7,21.3
 2003/09/04,12:45,31,44,30.8,21.4
 2003/09/04,13:00,31,44,30.8,21.4
 2003/09/04,13:15,31,44,30.7,21.5
 2003/09/04,13:30,31,45,30.8,21.5
 2003/09/04,13:45,31,45,30.8,21.6
 2003/09/04,14:00,31,45,30.9,21.6
 2003/09/04,14:15,31.1,45,30.9,21.7
 2003/09/04,14:30,31.1,45,30.9,21.7
 2003/09/04,14:45,31.1,45,30.9,21.8
 2003/09/04,15:00,31.1,45,30.9,21.8
 2003/09/04,15:15,31.1,45,31,21.9
 2003/09/04,15:30,31.1,45,31,21.9
 2003/09/04,15:45,31.1,45,31.1,22
 2003/09/04,16:00,31.1,45,31.1,22
 2003/09/04,16:15,31.2,45,31.1,22.1
 2003/09/04,16:30,31.2,45,31.2,22.1
 2003/09/04,16:45,31.2,45,31.2,22.2
 2003/09/04,17:00,31.2,45,31.3,22.2
 2003/09/04,17:15,31.2,45,31.7,22.3
 2003/09/04,17:30,31.2,45,31.9,22.3
 2003/09/04,17:45,31.2,45,31.6,22.4
 2003/09/04,18:00,31.2,45,31.7,22.4
 2003/09/04,18:15,31.2,45,31.5,22.5
 2003/09/04,18:30,31.1,45,31.3,22.5
 2003/09/04,18:45,31.1,45,31.3,22.6
 2003/09/04,19:00,31.1,45,31.2,22.6
 2003/09/04,19:15,31.1,45,31.2,22.6
 2003/09/04,19:30,31.1,45,31.2,22.7
 2003/09/04,19:45,31.1,45,31.1,22.7
 2003/09/04,20:00,31.1,45,31.2,22.7
 2003/09/04,20:15,31.1,45,31.1,22.8
 2003/09/04,20:30,31,45,31.1,22.8
 2003/09/04,20:45,31.1,45,31.2,21.8
 2003/09/04,21:00,31.1,45,31.1,21.9
 2003/09/04,21:15,31,45,31.1,21.9
 2003/09/04,21:30,31,45,31.1,22.1
 2003/09/04,21:45,31,45,31,21.4
 2003/09/04,22:00,30.5,41,31.1,20.2
 2003/09/04,22:15,29.1,35,31,20.3
 2003/09/04,22:30,28.6,33,31,20.3
 2003/09/04,22:45,27.9,31,31,20.4
 2003/09/04,23:00,27.8,35,31,20.4
 2003/09/04,23:15,28.2,41,30.8,20.5
 2003/09/04,23:30,28.2,38,30.7,20.6
 2003/09/04,23:45,28.3,38,30.7,20.6
 2003/09/05, 0:00,28.1,36,30.6,20.7
 2003/09/05, 0:15,28,35,30.6,20.8
 2003/09/05, 0:30,28,34,30.6,20.8
 2003/09/05, 0:45,27.6,33,30.5,20.9
 2003/09/05, 1:00,27.3,33,30.4,21
 2003/09/05, 1:15,27.2,33,30.5,21
 2003/09/05, 1:30,27.1,33,30.5,20.9
 2003/09/05, 1:45,27,32,30.5,20.9
 2003/09/05, 2:00,27,32,30.5,21
 2003/09/05, 2:15,26.8,32,30.5,21.1
 2003/09/05, 2:30,27.1,33,30.5,21.1
 2003/09/05, 2:45,28.1,35,30.5,21.2
 2003/09/05, 3:00,28.4,37,30.5,21.2
 2003/09/05, 3:15,28.7,38,30.5,21.3
 2003/09/05, 3:30,28.9,39,30.5,21.3
 2003/09/05, 3:45,29,39,30.5,21.4
 2003/09/05, 4:00,29.1,40,30.5,21.4
 2003/09/05, 4:15,29.3,41,30.5,21.5
 2003/09/05, 4:30,28.9,39,30.6,21.6
 2003/09/05, 4:45,28.4,37,30.6,21.6
 2003/09/05, 5:00,28.1,36,30.6,21.7
 2003/09/05, 5:15,27.8,37,30.5,21.7
 2003/09/05, 5:30,27.7,37,30.5,21.8
 2003/09/05, 5:45,27.6,37,30.5,21.8
 2003/09/05, 6:00,27.6,39,30.5,21.9
 2003/09/05, 6:15,27.5,39,30.4,21.9
 2003/09/05, 6:30,27.3,38,30.5,22.2
 2003/09/05, 6:45,27.3,39,30.5,22.2
 2003/09/05, 7:00,27.2,38,30.5,22.2
 2003/09/05, 7:15,27.4,40,30.5,20.5
 2003/09/05, 7:30,27.8,42,30.5,20.5
 2003/09/05, 7:45,28.5,43,30.5,20.5
 2003/09/05, 8:00,28.9,47,30.3,20.6
 2003/09/05, 8:15,29.1,48,30.3,20.6
 2003/09/05, 8:30,29.2,48,30.2,20.6
 2003/09/05, 8:45,29.5,47,30.2,20.7
 2003/09/05, 9:00,29.6,46,30.3,20.8
 2003/09/05, 9:15,29.7,46,30.3,20.8
 2003/09/05, 9:30,29.9,46,30.3,20.9
 2003/09/05, 9:45,29.9,46,30.4,20.9
 2003/09/05,10:00,30.1,45,30.4,21
 2003/09/05,10:15,30.1,46,30.5,21.1
 2003/09/05,10:30,30.1,46,30.5,21.1
 2003/09/05,10:45,30.2,46,30.5,21.2
 2003/09/05,11:00,30.3,46,30.6,21.2
 2003/09/05,11:15,30.3,46,30.6,21.3
 2003/09/05,11:30,30.4,46,30.6,21.3
 2003/09/05,11:45,30.4,47,30.6,21.4
 2003/09/05,12:00,30.4,48,30.6,21.5
 2003/09/05,12:15,30.5,48,30.6,21.5
 2003/09/05,12:30,30.5,48,30.6,21.6
 2003/09/05,12:45,30.5,48,30.6,21.6
 2003/09/05,13:00,30.5,48,30.7,21.7
 2003/09/05,13:15,30.6,48,30.6,21.7
 2003/09/05,13:30,30.6,48,30.7,21.8
 2003/09/05,13:45,30.6,48,30.7,21.8
 2003/09/05,14:00,30.6,48,30.7,21.9
 2003/09/05,14:15,30.7,48,30.7,21.9
 2003/09/05,14:30,30.7,48,30.7,22
 2003/09/05,14:45,30.7,48,30.8,22
 2003/09/05,15:00,30.8,48,30.8,22.1
 2003/09/05,15:15,30.9,48,30.8,22.1
 2003/09/05,15:30,31,48,30.8,22.2
 2003/09/05,15:45,31,49,30.9,22.2
 2003/09/05,16:00,31,49,31,22.3
 2003/09/05,16:15,31,50,31,22.3
 2003/09/05,16:30,31,50,31.1,22.4
 2003/09/05,16:45,31,50,31.3,22.4
 2003/09/05,17:00,31.1,50,31.5,22.5
 2003/09/05,17:15,31,51,31.6,22.5
 2003/09/05,17:30,31,51,31.4,22.6
 2003/09/05,17:45,31.1,52,31.3,22.6
 2003/09/05,18:00,31,53,31.1,22.7
 2003/09/05,18:15,31.1,53,31,22.7
 2003/09/05,18:30,31.3,53,31,22.8
 2003/09/05,18:45,31.1,54,31,22.8
 2003/09/05,19:00,31,53,30.7,22.9
 2003/09/05,19:15,30.9,53,30.6,22.9
 2003/09/05,19:30,30.9,53,30.5,22.9
 2003/09/05,19:45,30.9,52,30.5,23
 2003/09/05,20:00,30.9,53,30.3,23
 2003/09/05,20:15,30.9,54,30.3,23.1
 2003/09/05,20:30,30.9,53,30.4,23.1
 2003/09/05,20:45,30.8,53,30.2,23.1
 2003/09/05,21:00,30.8,53,30.3,23.2
 2003/09/05,21:15,30.8,53,30.2,23.2
 2003/09/05,21:30,30.8,53,30.2,23.2
 2003/09/05,21:45,30.8,53,30.2,23.3
 2003/09/05,22:00,30.8,53,30.2,23.3
 2003/09/05,22:15,30.7,53,30.1,23.3
 2003/09/05,22:30,30.7,53,30.1,23.4
 2003/09/05,22:45,30.7,53,30.2,23.4
 2003/09/05,23:00,30.7,53,30.1,23.4
 2003/09/05,23:15,30.7,53,30.2,23.5
 2003/09/05,23:30,30.7,54,30.1,23.5
 2003/09/05,23:45,30.7,53,30.1,23.5
 2003/09/06, 0:00,30.7,53,30.1,23.6
 2003/09/06, 0:15,30.7,53,30.1,23.6
 2003/09/06, 0:30,30.6,54,30.1,22.5
 2003/09/06, 0:45,29.7,42,30.2,22.5
 2003/09/06, 1:00,29,36,30.3,22.5
 2003/09/06, 1:15,28.5,33,30.3,22.5
 2003/09/06, 1:30,28.1,31,30.3,22.6
 2003/09/06, 1:45,28.1,34,30.3,22.6
 2003/09/06, 2:00,28.1,34,30.4,22.6
 2003/09/06, 2:15,27.8,34,30.3,22.7
 2003/09/06, 2:30,27.8,34,30.3,22.7
 2003/09/06, 2:45,27.7,33,30.3,22.8
 2003/09/06, 3:00,27.7,33,30.3,22.8
 2003/09/06, 3:15,27.5,33,30.3,22.8
 2003/09/06, 3:30,27.4,33,30.3,22.9
 2003/09/06, 3:45,27.4,32,30.3,22.9
 2003/09/06, 4:00,27.3,33,30.3,23
 2003/09/06, 4:15,27.2,33,30.3,23
 2003/09/06, 4:30,27.2,33,30.3,23
 2003/09/06, 4:45,27.1,33,30.3,23.1
 2003/09/06, 5:00,27,32,30.3,21.9
 2003/09/06, 5:15,27,32,30.3,21.9
 2003/09/06, 5:30,26.9,32,30.2,21.9
 2003/09/06, 5:45,26.8,32,30.2,22
 2003/09/06, 6:00,26.8,32,30.2,22
 2003/09/06, 6:15,26.8,32,30.2,22.1
 2003/09/06, 6:30,26.8,32,30.3,22.1
 2003/09/06, 6:45,26.9,32,30.3,22.2
 2003/09/06, 7:00,26.9,33,30.3,22.2
 2003/09/06, 7:15,27,33,30.4,22.2
 2003/09/06, 7:30,27,34,30.4,21.6
 2003/09/06, 7:45,27,33,30.4,21.7
 2003/09/06, 8:00,27,34,30.4,21
 2003/09/06, 8:15,27.2,34,30.4,21
 2003/09/06, 8:30,27.2,34,30.4,21
 2003/09/06, 8:45,27.2,35,30.4,21.1
 2003/09/06, 9:00,27.3,36,30.4,20.8
 2003/09/06, 9:15,27.4,35,30.4,20.8
 2003/09/06, 9:30,27.4,36,30.4,20.9
 2003/09/06, 9:45,27.5,36,30.4,21
 2003/09/06,10:00,27.6,36,30.4,20.9
 2003/09/06,10:15,27.5,37,30.3,20.9
 2003/09/06,10:30,27.5,38,30.4,21
 2003/09/06,10:45,28.2,41,30.4,20.7
 2003/09/06,11:00,28.5,43,30.5,20.8
 2003/09/06,11:15,28.8,43,30.5,20.8
 2003/09/06,11:30,29,43,30.5,20.9
 2003/09/06,11:45,29.1,44,30.5,20.9
 2003/09/06,12:00,29.3,44,30.5,21
 2003/09/06,12:15,29.4,45,30.6,21
 2003/09/06,12:30,29.6,46,30.6,21.1
 2003/09/06,12:45,29.7,46,30.6,21.2
 2003/09/06,13:00,29.8,47,30.7,21.2
 2003/09/06,13:15,29.2,39,30.7,21.3
 2003/09/06,13:30,29,39,30.7,21.3
 2003/09/06,13:45,28.7,36,30.6,21.4
 2003/09/06,14:00,29.3,42,30.7,21.5
 2003/09/06,14:15,29.6,44,30.6,21.5
 2003/09/06,14:30,29.4,41,30.6,21.6
 2003/09/06,14:45,28.9,34,30.6,21.6
 2003/09/06,15:00,28.7,32,30.5,21.7
 2003/09/06,15:15,28.3,29,30.4,21.7
 2003/09/06,15:30,27.9,31,30.5,21.8
 2003/09/06,15:45,27.9,33,30.4,21.9
 2003/09/06,16:00,28.4,34,30.4,21.9
 2003/09/06,16:15,28.6,36,30.4,21.6
 2003/09/06,16:30,28.8,37,30.4,21.7
 2003/09/06,16:45,29,38,30.5,21.6
 2003/09/06,17:00,29.2,39,30.7,21.6
 2003/09/06,17:15,29.3,39,30.7,21.7
 2003/09/06,17:30,29.4,40,30.7,21.7
 2003/09/06,17:45,29.4,40,30.7,21.7
 2003/09/06,18:00,29.5,40,30.7,21.8
 2003/09/06,18:15,29.6,41,30.7,21.8
 2003/09/06,18:30,29.6,41,30.6,21.9
 2003/09/06,18:45,29.7,42,30.6,22
 2003/09/06,19:00,-9.9,-9.9,30.6,21.5
 2003/09/06,19:15,-9.9,-9.9,30.6,21.5
 2003/09/06,19:30,-9.9,-9.9,30.6,21.5
 2003/09/06,19:45,-9.9,-9.9,30.6,21.6
 2003/09/06,20:00,-9.9,-9.9,30.5,21.6
 2003/09/06,20:15,-9.9,-9.9,30.5,21.7
 2003/09/06,20:30,-9.9,-9.9,30.5,21.7
 2003/09/06,20:45,-9.9,-9.9,30.4,21.8
 2003/09/06,21:00,-9.9,-9.9,30.4,21.8
 2003/09/06,21:15,-9.9,-9.9,30.4,21.9
 2003/09/06,21:30,-9.9,-9.9,30.4,21.9
 2003/09/06,21:45,-9.9,-9.9,30.3,22
 2003/09/06,22:00,-9.9,-9.9,30.4,22
 2003/09/06,22:15,-9.9,-9.9,30.4,22.1
 2003/09/06,22:30,-9.9,-9.9,30.3,22.1
 2003/09/06,22:45,-9.9,-9.9,30.3,22.2
 2003/09/06,23:00,-9.9,-9.9,30.3,21.5
 2003/09/06,23:15,-9.9,-9.9,30.3,21.5
 2003/09/06,23:30,-9.9,-9.9,30.3,21.6
 2003/09/06,23:45,-9.9,-9.9,30.3,21.6
 2003/09/07, 0:00,-9.9,-9.9,30.3,21.7
 2003/09/07, 0:15,-9.9,-9.9,30.3,21.7
 2003/09/07, 0:30,-9.9,-9.9,30.2,21.8
 2003/09/07, 0:45,-9.9,-9.9,30.3,21.8
 2003/09/07, 1:00,-9.9,-9.9,30.3,21.8
 2003/09/07, 1:15,-9.9,-9.9,30.2,21.9
 2003/09/07, 1:30,-9.9,-9.9,30.2,22
 2003/09/07, 1:45,-9.9,-9.9,30.2,22
 2003/09/07, 2:00,-9.9,-9.9,30.2,22.1
 2003/09/07, 2:15,-9.9,-9.9,30.1,22.1
 2003/09/07, 2:30,-9.9,-9.9,30.1,22.2
 2003/09/07, 2:45,-9.9,-9.9,30.2,22.2
 2003/09/07, 3:00,-9.9,-9.9,30.1,22.2
 2003/09/07, 3:15,-9.9,-9.9,30.1,22.5
 2003/09/07, 3:30,-9.9,-9.9,30.1,22.6
 2003/09/07, 3:45,-9.9,-9.9,30.1,22.6
 2003/09/07, 4:00,-9.9,-9.9,30.1,22.6
 2003/09/07, 4:15,-9.9,-9.9,30,22.6
 2003/09/07, 4:30,-9.9,-9.9,30.1,22.7
 2003/09/07, 4:45,-9.9,-9.9,30.1,22.7
 2003/09/07, 5:00,-9.9,-9.9,30.1,22.8
 2003/09/07, 5:15,-9.9,-9.9,30.1,22.8
 2003/09/07, 5:30,-9.9,-9.9,30.1,22.8
 2003/09/07, 5:45,-9.9,-9.9,30,22.9
 2003/09/07, 6:00,-9.9,-9.9,30,22.9
 2003/09/07, 6:15,-9.9,-9.9,30,22.9
 2003/09/07, 6:30,-9.9,-9.9,29.9,23
 2003/09/07, 6:45,-9.9,-9.9,30,23
 2003/09/07, 7:00,-9.9,-9.9,29.9,23
 2003/09/07, 7:15,-9.9,-9.9,30,23.1
 2003/09/07, 7:30,-9.9,-9.9,30,23.1
 2003/09/07, 7:45,-9.9,-9.9,30,23.2
 2003/09/07, 8:00,-9.9,-9.9,30,23.2
 2003/09/07, 8:15,-9.9,-9.9,30,23.1
 2003/09/07, 8:30,-9.9,-9.9,30,21.6
 2003/09/07, 8:45,-9.9,-9.9,30,21.6
 2003/09/07, 9:00,-9.9,-9.9,29.9,21.6
 2003/09/07, 9:15,-9.9,-9.9,29.9,21.7
 2003/09/07, 9:30,-9.9,-9.9,29.8,21.7
 2003/09/07, 9:45,-9.9,-9.9,29.8,21.8
 2003/09/07,10:00,-9.9,-9.9,29.8,22.2
 2003/09/07,10:15,-9.9,-9.9,29.8,21
 2003/09/07,10:30,-9.9,-9.9,29.8,21.1
 2003/09/07,10:45,-9.9,-9.9,29.8,21.1
 2003/09/07,11:00,-9.9,-9.9,29.9,21.2
 2003/09/07,11:15,-9.9,-9.9,29.9,21.2
 2003/09/07,11:30,-9.9,-9.9,29.9,21
 2003/09/07,11:45,-9.9,-9.9,30,21
 2003/09/07,12:00,-9.9,-9.9,30,21
 2003/09/07,12:15,-9.9,-9.9,30,21.1
 2003/09/07,12:30,-9.9,-9.9,30,21.1
 2003/09/07,12:45,-9.9,-9.9,30,21.2
 2003/09/07,13:00,-9.9,-9.9,30.1,21.3
 2003/09/07,13:15,-9.9,-9.9,30.1,21.3
 2003/09/07,13:30,-9.9,-9.9,30.1,21.4
 2003/09/07,13:45,-9.9,-9.9,30.2,21.4
 2003/09/07,14:00,-9.9,-9.9,30.2,21.5
 2003/09/07,14:15,-9.9,-9.9,30.2,21.5
 2003/09/07,14:30,-9.9,-9.9,30.3,21.6
 2003/09/07,14:45,-9.9,-9.9,30.4,21.6
 2003/09/07,15:00,-9.9,-9.9,30.4,21.6
 2003/09/07,15:15,-9.9,-9.9,30.5,21.6
 2003/09/07,15:30,-9.9,-9.9,30.5,21.7
 2003/09/07,15:45,-9.9,-9.9,30.5,21.7
 2003/09/07,16:00,-9.9,-9.9,30.5,21.8
 2003/09/07,16:15,-9.9,-9.9,30.6,21.8
 2003/09/07,16:30,-9.9,-9.9,30.6,21.9
 2003/09/07,16:45,-9.9,-9.9,30.8,22.2
 2003/09/07,17:00,-9.9,-9.9,30.9,22
 2003/09/07,17:15,-9.9,-9.9,31.1,22.1
 2003/09/07,17:30,-9.9,-9.9,31.3,22.1
 2003/09/07,17:45,-9.9,-9.9,31.2,22.1
 2003/09/07,18:00,-9.9,-9.9,31.2,22.2
 2003/09/07,18:15,-9.9,-9.9,31,22.2
 2003/09/07,18:30,-9.9,-9.9,30.9,22.2